{"data":{"norad_id":60475,"intl_designator":"2024-149H","name":"CONNECTA IOT-3","alt_names":[],"object_type":"PAYLOAD","status":"ACTIVE","operator":null,"country":"TURK","launch_date":"2024-08-16","launch_site_code":"AFWTR","launch_vehicle":null,"mission":null,"orbit_class":"UNKNOWN","rcs_meters":null,"size_class":null,"mass_kg":null,"dimensions":null,"purposes":[],"wikipedia_slug":null,"has_3d_model":false,"image_url":null,"decayed_at":null,"tle_current":{"epoch":"2026-09-22T16:38:26.996928Z","epoch_age_seconds":96809,"freshness":"FRESH","line1":"1 60475U 24149H   26265.69336802  .00005995  00000+0  24843-3 0  9991","line2":"2 60475  97.3664 340.0626 0001397 294.7733  65.3359 15.24268320116658","mean_motion":15.2426832,"eccentricity":0.0001397,"inclination_deg":97.3664,"raan_deg":340.0626,"arg_perigee_deg":294.7733,"mean_anomaly_deg":65.3359,"bstar":0.00024843,"rev_number":11665,"period_min":94.471556031552,"perigee_km":492.02351134684,"apogee_km":493.94330238852,"semimajor_km":6871.1204068677,"source":"CELESTRAK","updated_at":"2026-09-23T09:00:20.653177Z"}}}